Miscellaneous Local Product
Issued by NWS Hastings, NE

Home | Current Version | Previous Version | Graphics & Text | Print | Product List | Glossary On
Versions: 1 2 3 4 5 6 7 8 9 10 11 12 13 14 15 16 17 18 19 20 21 22 23 24 25 26 27 28 29 30 31 32 33 34 35 36 37 38 39 40 41 42 43 44 45 46 47 48 49 50
000
AXUS43 KGID 220602
MISGRI

GID CWA HOURLY WEATHER ROUNDUP
NATIONAL WEATHER SERVICE HASTINGS NE
100 AM CDT TUE JUL 22 2014

NOTE: "FAIR" INDICATES FEW OR NO CLOUDS BELOW 12,000 FEET WITH NO
SIGNIFICANT WEATHER AND/OR OBSTRUCTIONS TO VISIBILITY.

...SOUTH CENTRAL NEBRASKA...

CITY           SKY/WX    TMP DP  RH WIND       PRES   REMARKS
GRAND ISLAND   FAIR      86  72  62 S16       29.93S HX  92
HASTINGS       FAIR      84  68  58 S10       29.96S
KEARNEY        FAIR      82  72  69 SW13      29.97S
ORD            NOT AVBL
YORK           FAIR      84  73  70 SW16      29.93S HX  91
AURORA         FAIR      84  73  67 SW12G20   29.94S HX  90
LEXINGTON      CLEAR     80  66  62 SW9       29.99R
HOLDREGE       FAIR      79  68  70 SW7       29.99S
HEBRON         FAIR      83  70  62 SW7       29.95R

...NEBRASKA PANHANDLE...

CITY           SKY/WX    TMP DP  RH WIND       PRES   REMARKS
CHADRON        PTCLDY    78  54  43 NE10      30.03R
ALLIANCE       PTCLDY    69  51  52 CALM      30.05R
SCOTTSBLUFF    PTCLDY    68  59  73 E5        30.06R
SIDNEY         PTCLDY    76  52  43 SE8       30.10S

...WESTERN AND NORTH CENTRAL NEBRASKA...

CITY           SKY/WX    TMP DP  RH WIND       PRES   REMARKS
VALENTINE      MOCLDY    82  59  45 NE6       29.97R
AINSWORTH      MOCLDY    82  55  40 W13       29.97R
ONEILL         PTCLDY    76  67  72 SW8       29.89F
BROKEN BOW     MOCLDY    76  61  59 S9        29.97R
IMPERIAL       CLEAR     77  59  53 SW7       30.06R
NORTH PLATTE   MOCLDY    82  56  40 S9        29.98F
MCCOOK         CLEAR     75  63  66 SW6       30.01F

...EASTERN NEBRASKA...

CITY           SKY/WX    TMP DP  RH WIND       PRES   REMARKS
NORFOLK        FAIR      85  72  65 SW16G25   29.87R HX  91
SO SIOUX CITY  FAIR      81  76  84 S6        29.83R
TEKAMAH        FAIR      84  75  74 S7        29.85R HX  92
COLUMBUS       FAIR      88  72  58 SW13      29.91R HX  94
ALBION         FAIR      82  71  70 SW6       29.91R
OMAHA EPPLEY   CLOUDY    85  74  69 SE10      29.88R HX  92
OFFUTT AFB     FAIR      80  80  99 E3        29.89R
MILLARD        FAIR      87  73  61 S3        29.88R HX  94
LINCOLN        FAIR      87  70  56 SW14      29.92R HX  92
NEBRASKA CITY  FAIR      82  73  72 SW14G20   29.91S
BEATRICE       FAIR      80  69  70 S12       29.93R
FALLS CITY     FAIR      82  73  74 SW16      29.92S

...NORTHERN KANSAS...

CITY           SKY/WX    TMP DP  RH WIND       PRES   REMARKS
GOODLAND       PTCLDY    72  64  76 SW17G24   30.10S
HILL CITY      FAIR      79  60  52 W8        30.00R
NORTON         CLEAR     79  57  47 SW9G17    29.98
PHILLIPSBURG   CLEAR     81  66  61 S6        29.99R
SMITH CENTER   CLEAR     79  66  65 S9        29.98S
HAYS           FAIR      79  63  57 SW8       29.99R
RUSSELL        FAIR      80  70  71 SW8       29.98R
CONCORDIA      FAIR      83  69  62 S17       29.96R
SALINA         FAIR      86  73  65 S17G23    29.97R HX  93
TOPEKA         FAIR      83  75  77 S8        29.97F HX  90



USA.gov is the U.S. government's official web portal to all federal, state and local government web resources and services.